Carlsbad, NM

1:03 AM MDT on October 17, 2017 (GMT -0600)
Cavern City

Weather History for KCNM - May, 2009

Change the Weather History Date:

Tuesday, May 12, 2009

  Actual Average Record
Temperature  
Mean Temperature 80 °F -  
Max Temperature 102 °F 86 °F 104 °F (1956)
Min Temperature 57 °F 55 °F 44 °F (1953)
Cooling Degree Days 14    
Growing Degree Days 30 (Base 50)    
Moisture  
Dew Point 38 °F    
Average Humidity 33    
Maximum Humidity 82    
Minimum Humidity 7    
Precipitation  
Precipitation 0.00 in - - ()
Sea Level Pressure  
Sea Level Pressure 29.68 in    
Wind  
Wind Speed 8 mph (SW)    
Max Wind Speed 24 mph    
Max Gust Speed 33 mph    
Visibility 10 miles    
Events      
Averages and records for this station are not official NWS values.
T = Trace of Precipitation, MM = Missing Value Source: NWS Daily Summary

Daily Weather History Graph

Daily Weather History Graph

Search for Another Location

Airport or City:

Trip Planner

Search our weather history database for the weather conditions in past years. The results will help you decide how hot, cold, wet, or windy it might be!

Date:

Astronomy

May. 12, 2009 Rise Set
Actual Time 6:00 AM MDT 7:46 PM MDT
Civil Twilight 5:34 AM MDT 8:13 PM MDT
Nautical Twilight 5:01 AM MDT 8:45 PM MDT
Astronomical Twilight 4:27 AM MDT 9:19 PM MDT
Moon 11:18 PM MDT (5/12) 8:25 AM MDT (5/12)
Length of Visible Light 14h 38m
Length of Day
13h 45m
Waning Gibbous, 88% of the Moon is Illuminated
May 12
Waning Gibbous
May 17
Last Quarter
May 24
New
May 30
First Quarter
Jun 7
Full

Hourly Weather History & Observations

Time (MDT) Temp. Heat Index Dew Point Humidity Pressure Visibility Wind Dir Wind Speed Gust Speed Precip Events Conditions
12:53 AM 66.0 °F - 54.0 °F 65% 29.84 in 10.0 mi SSE 5.8 mph - N/A   Clear
1:53 AM 64.9 °F - 54.0 °F 68% 29.82 in 10.0 mi SSE 5.8 mph - N/A   Clear
2:53 AM 64.4 °F - 53.6 °F 68% 29.93 in 10.0 mi Calm Calm - N/A   Clear
3:53 AM 64.0 °F - 54.0 °F 70% 29.78 in 10.0 mi Calm Calm - N/A   Clear
4:53 AM 61.0 °F - 52.0 °F 72% 29.76 in 10.0 mi East 3.5 mph - N/A   Clear
5:53 AM 57.2 °F - 51.8 °F 82% 29.89 in 10.0 mi SSE 4.6 mph - N/A   Clear
6:53 AM 61.0 °F - 51.1 °F 70% 29.78 in 10.0 mi East 3.5 mph - N/A   Clear
7:53 AM 69.1 °F - 55.0 °F 61% 29.77 in 10.0 mi SE 5.8 mph - N/A   Clear
8:53 AM 72.0 °F - 55.9 °F 57% 29.76 in 10.0 mi SE 6.9 mph - N/A   Clear
9:53 AM 80.1 °F 80.1 °F 55.0 °F 42% 29.74 in 10.0 mi SE 6.9 mph - N/A   Clear
10:53 AM 84.9 °F 83.3 °F 54.0 °F 34% 29.71 in 10.0 mi South 6.9 mph - N/A   Clear
11:35 AM 96.8 °F - 30.2 °F 10% 29.86 in 10.0 mi WSW 20.7 mph 27.6 mph N/A   Clear
11:53 AM 97.0 °F - 28.9 °F 9% 29.67 in 10.0 mi WSW 19.6 mph 26.5 mph N/A   Clear
12:53 PM 97.0 °F - 28.9 °F 9% 29.64 in 10.0 mi West 9.2 mph 24.2 mph N/A   Clear
1:53 PM 99.0 °F - 30.0 °F 9% 29.61 in 10.0 mi WSW 12.7 mph 24.2 mph N/A   Clear
2:53 PM 102.0 °F - 28.9 °F 8% 29.58 in 10.0 mi WSW 24.2 mph 32.2 mph N/A   Clear
3:53 PM 100.0 °F - 27.0 °F 8% 29.56 in 10.0 mi WSW 19.6 mph 33.4 mph N/A   Clear
4:53 PM 99.0 °F - 23.0 °F 7% 29.54 in 10.0 mi WSW 21.9 mph 31.1 mph N/A   Clear
5:53 PM 97.0 °F - 24.1 °F 7% 29.54 in 10.0 mi WSW 24.2 mph 32.2 mph N/A   Clear
6:53 PM 95.0 °F - 24.1 °F 8% 29.53 in 10.0 mi WSW 17.3 mph 20.7 mph N/A   Clear
7:53 PM 88.0 °F - 21.9 °F 9% 29.54 in 10.0 mi WSW 9.2 mph - N/A   Clear
8:53 PM 80.1 °F - 21.9 °F 12% 29.55 in 10.0 mi WSW 9.2 mph - N/A   Clear
9:53 PM 73.9 °F - 21.0 °F 14% 29.57 in 10.0 mi WSW 8.1 mph - N/A   Clear
10:53 PM 75.0 °F - 21.9 °F 14% 29.57 in 10.0 mi WSW 9.2 mph - N/A   Clear
11:53 PM 71.1 °F - 21.9 °F 16% 29.56 in 10.0 mi WSW 6.9 mph - N/A   Clear